Regional Weather Roundup
Issued by NWS

Home | Current Version | Previous Version | Text Only | Print | Product List | Glossary Off
Versions: 1 2 3 4 5 6 7 8 9 10 11 12 13 14 15 16 17 18 19 20 21 22 23 24 25 26 27 28 29 30 31 32 33 34 35 36 37 38 39 40 41 42 43 44 45 46 47 48 49 50

000
ASUS43 KOAX 142210
RWRNE

WEATHER ROUNDUP FOR NEBRASKA
NATIONAL WEATHER SERVICE OMAHA NE
400 PM CST THU DEC 14 2017

NOTES: SATELLITE DATA IS BEING USED TO AUGMENT CLOUD COVER ABOVE
       12000 FEET.
       "FAIR" INDICATES FEW OR NO CLOUDS BELOW 12,000 FEET WITH NO
       SIGNIFICANT WEATHER AND/OR OBSTRUCTIONS TO VISIBILITY.


NEZ001>004-019>022-054>056-142300-
NEBRASKA PANHANDLE

CITY           SKY/WX    TMP DP  RH WIND       PRES   REMARKS
SCOTTSBLUFF    CLOUDY    35  19  52 N21G28    30.22R WCI  24
ALLIANCE       CLOUDY    31  21  66 NW13      30.18S WCI  21
CHADRON        CLOUDY    35  21  56 N9        30.22R WCI  28
GORDON         CLOUDY    32  26  77 N13G22    30.18R WCI  22
KIMBALL        CLOUDY    31  24  74 N12G20    30.19S WCI  22
SIDNEY         CLOUDY    34  16  47 N28G38    30.19R WCI  21
$$

NEZ057>060-069>072-079>082-142300-
SOUTHWEST NEBRASKA

CITY           SKY/WX    TMP DP  RH WIND       PRES   REMARKS
NORTH PLATTE   CLOUDY    38  24  57 NW17G28   30.16R WCI  28
IMPERIAL       CLOUDY    36  28  73 N15       30.18R WCI  27
LEXINGTON      CLOUDY    38  28  66 N20       30.14R WCI  28
MCCOOK         CLOUDY    40  22  48 N20       30.15R WCI  30
OGALLALA       CLOUDY    38  19  46 N24       30.18R WCI  27
$$

NEZ005>010-023>029-035>040-094-142300-
NORTH CENTRAL NEBRASKA

CITY           SKY/WX    TMP DP  RH WIND       PRES   REMARKS
VALENTINE      CLOUDY    35  30  82 NW17G23   30.15  WCI  25
AINSWORTH      CLOUDY    32  31  95 N16G24    30.14R WCI  22
BROKEN BOW     CLOUDY    35  34  96 NW16G24   30.12R WCI  25
O`NEILL        DRIZZLE   34  34 100 NW14G20   30.11R WCI  24
ORD            CLOUDY    36  32  85 NW17G26   30.10R WCI  26
THEDFORD       FLURRIES  34  29  84 NW23G30   30.15R WCI  22
$$

NEZ041-046>049-061>064-073>077-083>087-142300-
SOUTH CENTRAL NEBRASKA

CITY           SKY/WX    TMP DP  RH WIND       PRES   REMARKS
GRAND ISLAND   LGT RAIN  36  35  96 NW18G24   30.11R FOG     WCI  26
AURORA         DRIZZLE   37  35  93 N13       30.09R WCI  28
HASTINGS       CLOUDY    36  33  89 N16       30.10R WCI  26
HEBRON         LGT RAIN  39  36  89 N7        30.09R WCI  34
HOLDREGE       CLOUDY    37  31  77 N20G26    30.12R WCI  27
KEARNEY        CLOUDY    37  32  82 N22G28    30.12R WCI  26
YORK           MOCLDY    37  37 100 MISG      30.09R
$$

NEZ011>018-030>034-042>045-142300-
NORTHEAST NEBRASKA

CITY           SKY/WX    TMP DP  RH WIND       PRES   REMARKS
NORFOLK        CLOUDY    35  30  82 NW12      30.06R WCI  27
ALBION         DRIZZLE   37  34  90 N16       30.09R WCI  27
BLAIR          CLOUDY    39  27  62 N9        30.06R WCI  33
COLUMBUS       MIX PCPN  36  33  89 NW13      30.09R WCI  27
FREMONT        CLOUDY    40  27  58 NW8       30.07R WCI  35
TEKAMAH        CLOUDY    39  24  55 NE8       30.07R WCI  33
WAYNE          CLOUDY    37  24  59 N9        30.07R WCI  31
$$

NEZ050>053-065>068-078-088>093-142300-
SOUTHEAST NEBRASKA

CITY           SKY/WX    TMP DP  RH WIND       PRES   REMARKS
LINCOLN        LGT RAIN  39  32  76 NW12      30.10R WCI  32
OMAHA EPPLEY   CLOUDY    41  25  53 N8        30.07R
BEATRICE       DRIZZLE   39  33  80 NW9       30.08R WCI  33
FALLS CITY     CLOUDY    42  24  49 NW8       30.06R
NEBRASKA CITY  CLOUDY    41  27  57 N13       30.06R
PLATTSMOUTH    CLOUDY    40  28  60 NW9       30.06S HAZE    WCI  34
$$

NEZ044-045-051>053-067-142300-
OMAHA AREA

CITY           SKY/WX    TMP DP  RH WIND       PRES   REMARKS
OMAHA EPPLEY   CLOUDY    41  25  53 N8        30.07R
BLAIR          CLOUDY    39  27  62 N9        30.06R WCI  33
FREMONT        CLOUDY    40  27  58 NW8       30.07R WCI  35
MILLARD        CLOUDY    42  28  57 N7        30.07R
OFFUTT AFB     CLOUDY    41  25  53 N8        30.06R
PLATTSMOUTH    CLOUDY    40  28  60 NW9       30.06S HAZE    WCI  34
WAHOO          CLOUDY    41  26  57 NW9       30.07R
$$




USA.gov is the U.S. government's official web portal to all federal, state and local government web resources and services.